Content
SEND FEEDBACK

Daily
Averages
Monthly
Summary
United States of America

LAKE GEORGE, MINNESOTA


Home > North America > United States > Minnesota
Elevation: 1490 feet     Latitude: 47 13N     Longitude: 095 12W

WEATHER
 
SELECT A DAY
Number of Records: 214,199;   Date Range: 1/1/95 - 7/26/14
 
SHARE

PRINT THIS DATA

[ ← Previous Day ]
WEATHER ALMANAC - FEBRUARY 5, 2013
[ Next Day → ]
[ °C ]   °F
Weather ElementAverageHighLow
Temperature14.6 °F23 °F (3:53 am)9 °F (6:53 pm)
Dewpoint7.1 °F19.9 °F (3:53 am)-0.9 °F (4:53 pm)
Humidity72.9 %89 % (2:53 am)45 % (4:53 pm)
Barometer29.88 in30.08 in (11:53 pm)29.62 in (12:53 am)
Wind Speed8.4 mph16.1 mph (4:53 am)
Weather ElementAverage
Visibility8.4 mi
Wind DirectionWSW (260.7 °)

Weather ElementTotal
Precipitation---
Heating Degree Days49 (Base 65)
Averaged from 29 records on February 5, 2013
WEATHER CONDITIONS BREAKOUT
WIND DIRECTION BREAKOUT
WEATHER BY HOUR - FEBRUARY 5, 2013
[ °C ]   °F
Local TimeTemperatureDewpointHumidityBarometerVisibilityWind DirectionWind SpeedGust SpeedPrecipitationEventsConditions
12:53 AM18.0 °F14.0 °F84 %29.62 in9.0 miSW (220°)9.2 mphOvercast
1:53 AM19.0 °F16.0 °F88 %29.62 in9.0 miWSW (250°)10.4 mphOvercast
2:53 AM19.9 °F17.1 °F89 %29.62 in9.0 miWest (260°)6.9 mphOvercast
3:53 AM23.0 °F19.9 °F88 %29.63 in8.0 miWest (280°)13.8 mphOvercast
4:53 AM23.0 °F19.9 °F88 %29.65 in9.0 miNW (310°)16.1 mphOvercast
5:53 AM21.0 °F18.0 °F88 %29.70 in9.0 miNNW (340°)13.8 mphOvercast
6:53 AM18.0 °F14.0 °F84 %29.76 in10.0 miNNW (340°)13.8 mphOvercast
7:53 AM14.0 °F9.0 °F80 %29.82 in6.0 miNNW (340°)13.8 mph0.00 inSnowLight Snow
8:23 AM12.2 °F8.6 °F85 %29.75 in2.5 miNorth (350°)10.4 mph0.00 inSnowLight Snow
8:36 AM12.2 °F6.8 °F79 %29.77 in5.0 miNorth (10°)13.8 mph0.00 inSnowLight Snow
8:47 AM12.2 °F6.8 °F79 %29.78 in1.8 miNorth (360°)12.7 mph0.00 inSnowLight Snow
8:53 AM12.2 °F6.8 °F79 %29.78 in1.8 miNorth (360°)12.7 mphSnowLight Snow
9:01 AM12.2 °F6.8 °F79 %29.79 in3.0 miNorth (360°)10.4 mph0.00 inSnowLight Snow
9:27 AM10.4 °F3.2 °F73 %29.81 in10.0 miNorth (360°)12.7 mph0.00 inScattered Clouds
9:53 AM10.9 °F3.0 °F70 %29.93 in10.0 miNorth (360°)10.4 mph0.00 inClear
10:53 AM12.0 °F3.0 °F67 %29.96 in10.0 miNorth (360°)8.1 mphClear
11:53 AM14.0 °F3.0 °F62 %29.98 in10.0 miNNW (340°)8.1 mphClear
12:53 PM16.0 °F3.9 °F59 %29.98 in10.0 miNorth (360°)8.1 mphClear
1:53 PM16.0 °F5.0 °F62 %30.00 in10.0 miNW (310°)6.9 mphClear
2:53 PM18.0 °F3.0 °F52 %29.99 in10.0 miNNW (330°)5.8 mphMostly Cloudy
3:53 PM16.0 °F3.0 °F57 %30.01 in10.0 miNW (310°)9.2 mphClear
4:53 PM17.1 °F-0.9 °F45 %30.02 in10.0 miNorth (360°)6.9 mphOvercast
5:53 PM15.1 °F1.9 °F56 %30.04 in10.0 miNorth (350°)4.6 mphOvercast
6:53 PM9.0 °F-0.9 °F64 %30.06 in10.0 miNNW (340°)5.8 mphMostly Cloudy
7:53 PM9.0 °F1.0 °F70 %30.06 in10.0 miCalmOvercast
8:53 PM10.9 °F1.9 °F67 %30.06 in10.0 miCalmOvercast
9:53 PM10.9 °F3.9 °F73 %30.07 in10.0 miCalmOvercast
10:53 PM10.9 °F3.9 °F73 %30.07 in10.0 miCalmOvercast
11:53 PM10.9 °F3.9 °F73 %30.08 in10.0 miCalmOvercast
Hourly data recorded from KPKD, located miles away from Lake George, Minnesota







STORIES FROM OUR PARTNERS